Weather History for PAPG - November, 2013

Change the Weather History Date:

Sunday, November 10, 2013

  Actual Average Record
Temperature  
Mean Temperature 28 °F -  
Max Temperature 33 °F 39 °F 59 °F (1997)
Min Temperature 24 °F 32 °F 14 °F (1985)
Degree Days  
Heating Degree Days 36    
Moisture  
Dew Point 25 °F    
Average Humidity 86    
Maximum Humidity 93    
Minimum Humidity 70    
Precipitation  
Precipitation 0.00 in - - ()
Sea Level Pressure  
Sea Level Pressure 30.31 in    
Wind  
Wind Speed 1 mph (SSW)    
Max Wind Speed 5 mph    
Max Gust Speed -    
Visibility 10 miles    
Events      
Averages and records for this station are not official NWS values.
T = Trace of Precipitation, MM = Missing Value Source: NWS Daily Summary

Daily Weather History Graph

Daily Weather History Graph

Search for Another Location

Airport or City:

Trip Planner

Search our weather history database for the weather conditions in past years. The results will help you decide how hot, cold, wet, or windy it might be!

Date:

Astronomy

Nov. 10, 2013 Rise Set
Actual Time 7:22 AM AKST 3:48 PM AKST
Civil Twilight 6:39 AM AKST 4:30 PM AKST
Nautical Twilight 5:53 AM AKST 5:17 PM AKST
Astronomical Twilight 5:09 AM AKST 6:01 PM AKST
Moon 1:11 PM AKST (11/10) No Moon Set
Length of Visible Light 9h 50m
Length of Day
8h 25m
First Quarter, 57% of the Moon is Illuminated
Nov 10
First Quarter
Nov 17
Full
Nov 25
Last Quarter
Dec 2
New
Dec 9
First Quarter

Hourly Weather History & Observations

Time (AKST) Temp. Windchill Dew Point Humidity Pressure Visibility Wind Dir Wind Speed Gust Speed Precip Events Conditions
12:36 AM 26.6 °F 22.6 °F 24.8 °F 93% 30.32 in 10.0 mi SW 3.5 mph - N/A   Clear
1:16 AM 26.6 °F - 24.8 °F 93% 30.33 in 10.0 mi Calm Calm - N/A   Clear
1:36 AM 26.6 °F - 24.8 °F 93% 30.33 in 10.0 mi Calm Calm - N/A   Clear
1:56 AM 28.4 °F - 24.8 °F 86% 30.33 in 10.0 mi Calm Calm - N/A   Clear
2:16 AM 26.6 °F - 24.8 °F 93% 30.33 in 10.0 mi Calm Calm - N/A   Clear
2:56 AM 26.6 °F - 24.8 °F 93% 30.33 in 10.0 mi Calm Calm - N/A   Clear
3:16 AM 26.6 °F - 24.8 °F 93% 30.34 in 10.0 mi Calm Calm - N/A   Clear
3:56 AM 26.6 °F - 24.8 °F 93% 30.34 in 10.0 mi Calm Calm - N/A   Clear
4:16 AM 28.4 °F - 24.8 °F 86% 30.33 in 10.0 mi Calm Calm - N/A   Clear
4:36 AM 26.6 °F 22.6 °F 23.0 °F 86% 30.34 in 10.0 mi SW 3.5 mph - N/A   Clear
5:16 AM 26.6 °F - 24.8 °F 93% 30.34 in 10.0 mi Calm Calm - N/A   Clear
5:36 AM 26.6 °F - 23.0 °F 86% 30.34 in 10.0 mi Calm Calm - N/A   Clear
5:56 AM 26.6 °F - 21.2 °F 80% 30.34 in 10.0 mi Calm Calm - N/A   Clear
6:16 AM 26.6 °F - 21.2 °F 80% 30.33 in 10.0 mi Calm Calm - N/A   Clear
6:36 AM 26.6 °F - 23.0 °F 86% 30.34 in 10.0 mi Calm Calm - N/A   Clear
6:56 AM 24.8 °F 19.1 °F 21.2 °F 86% 30.33 in 10.0 mi SW 4.6 mph - N/A   Clear
7:56 AM 24.8 °F - 21.2 °F 86% 30.34 in 10.0 mi Calm Calm - N/A   Scattered Clouds
8:36 AM 24.8 °F - 23.0 °F 93% 30.34 in 10.0 mi Calm Calm - N/A   Scattered Clouds
8:56 AM 26.6 °F - 24.8 °F 93% 30.35 in 10.0 mi Calm Calm - N/A   Partly Cloudy
10:16 AM 30.2 °F - 26.6 °F 86% 30.35 in 10.0 mi Calm Calm - N/A   Partly Cloudy
11:50 AM 32.0 °F - 24.8 °F 75% 30.35 in 10.0 mi Calm Calm - N/A   Scattered Clouds
11:56 AM 32.0 °F - 24.8 °F 75% 30.35 in 10.0 mi Calm Calm - N/A   Scattered Clouds
12:16 PM 33.8 °F - 24.8 °F 70% 30.35 in 10.0 mi Calm Calm - N/A   Scattered Clouds
12:36 PM 33.8 °F - 26.6 °F 75% 30.34 in 10.0 mi Calm Calm - N/A   Scattered Clouds
1:50 PM 33.8 °F - 26.6 °F 75% 30.32 in 10.0 mi Calm Calm - N/A   Scattered Clouds
1:56 PM 33.8 °F 30.8 °F 26.6 °F 75% 30.32 in 10.0 mi SSW 3.5 mph - N/A   Scattered Clouds
2:16 PM 33.8 °F - 26.6 °F 75% 30.33 in 10.0 mi Calm Calm - N/A   Scattered Clouds
2:36 PM 33.8 °F 30.8 °F 28.4 °F 81% 30.32 in 10.0 mi SSE 3.5 mph - N/A   Scattered Clouds
3:16 PM 32.0 °F 28.7 °F 26.6 °F 80% 30.31 in 10.0 mi SE 3.5 mph - N/A   Partly Cloudy
3:36 PM 30.2 °F 26.7 °F 26.6 °F 86% 30.30 in 10.0 mi SE 3.5 mph - N/A   Partly Cloudy
4:16 PM 28.4 °F 23.3 °F 26.6 °F 93% 30.29 in 10.0 mi South 4.6 mph - N/A   Partly Cloudy
4:36 PM 28.4 °F 24.6 °F 26.6 °F 93% 30.30 in 10.0 mi West 3.5 mph - N/A   Partly Cloudy
5:16 PM 28.4 °F - 24.8 °F 86% 30.30 in 10.0 mi Calm Calm - N/A   Partly Cloudy
5:56 PM 28.4 °F - 26.6 °F 93% 30.29 in 10.0 mi Calm Calm - N/A   Clear
6:16 PM 28.4 °F 24.6 °F 24.8 °F 86% 30.29 in 10.0 mi SW 3.5 mph - N/A   Clear
6:36 PM 28.4 °F - 26.6 °F 93% 30.29 in 10.0 mi Calm Calm - N/A   Clear
6:56 PM 28.4 °F - 26.6 °F 93% 30.29 in 10.0 mi Calm Calm - N/A   Clear
7:16 PM 28.4 °F - 24.8 °F 86% 30.28 in 10.0 mi Calm Calm - N/A   Clear
7:36 PM 28.4 °F 24.6 °F 24.8 °F 86% 30.27 in 10.0 mi SSW 3.5 mph - N/A   Clear
8:36 PM 28.4 °F - 24.8 °F 86% 30.26 in 10.0 mi Calm Calm - N/A   Partly Cloudy
8:56 PM 28.4 °F 24.6 °F 24.8 °F 86% 30.25 in 10.0 mi South 3.5 mph - N/A   Partly Cloudy
9:16 PM 28.4 °F - 24.8 °F 86% 30.25 in 10.0 mi Calm Calm - N/A   Partly Cloudy
9:36 PM 26.6 °F - 24.8 °F 93% 30.24 in 10.0 mi Calm Calm - N/A   Partly Cloudy
9:56 PM 28.4 °F - 24.8 °F 86% 30.24 in 10.0 mi Calm Calm - N/A   Partly Cloudy
11:16 PM 28.4 °F 24.6 °F 24.8 °F 86% 30.22 in 10.0 mi WSW 3.5 mph - N/A   Clear
11:36 PM 28.4 °F 24.6 °F 24.8 °F 86% 30.21 in 1.8 mi WSW 3.5 mph - N/A   Overcast
11:56 PM 28.4 °F 24.6 °F 24.8 °F 86% 30.21 in 0.2 mi SSW 3.5 mph - N/A   Overcast